Погода в Хойтобэе

Россия / Республика Бурятия     51°47′31″N   107°25′49″E
темп.,
°C
ветер,
м/с
пор.,
м/с
влажн.,
%
обл.,
%
осадки,
мм/ч
давл.,
гПа
погр.,
м
17 мая, пн
пн1723:00+9юз2281100 0.0 101055
02:00+7юз018975 0.0 100811
05:00+6зюз1190100 0.0 100611
08:00+10ссз3774100 0.1 1007796
11:00+10сз4769100 0.1 10081023
14:00+12сз685295 0.2 10071484
17:00+12ссз575028 0.0 10071416
20:00+10зсз3662100 0.0 1007484
18 мая, вт
вт1823:00+8сз3773100 0.1 1009907
02:00+5сз2582100 0.2 1011229
05:00+4зсз1289100 0.0 101154
08:00+6з237097 0.0 1012813
11:00+8сз356666 0.2 10111123
14:00+12зсз464259 0.3 10091850
17:00+14сз583774 0.0 10061945
20:00+10ссз1152100 0.0 100556
19 мая, ср
ср1923:00+7юв116357 0.0 100418
02:00+6вюв2268100 0.0 100021
05:00+6в1166100 0.0 99626
08:00+7с2271100 0.4 996231
11:00+5сз41087100 1.1 1003776
14:00+9ссз576238 1.2 10051141
17:00+12ссз1341100 0.0 10031362
20:00+9юв115163 0.0 100212
20 мая, чт
чт2023:00+6юв22627 0.0 100217
02:00+4всв1167100 0.0 100018
05:00+5св2267100 0.2 99992
08:00+5св236990 0.4 1001292
11:00+12ссз5654100 0.0 10001079
14:00+12с4548100 0.0 10001045
17:00+13ссз554675 0.0 9971089
20:00+6ссз5966100 0.0 998552
21 мая, пт
пт2123:00+3ссз4877100 0.1 999409
02:00+2ссз4777100 0.1 997415
05:00+2ссз3579100 0.1 995418
08:00+1сз2594100 2.4 995309
11:00+3сз4987100 3.7 995737
14:00+3сз81482100 4.3 9971178
17:00+3сз81582100 0.4 9981093
20:00+2зсз71587100 0.8 10001142